Year,Month,Day,Hour,Minute,Value (Times are PST for temperature in C)
2016,03,27,00,01,8.20
2016,03,27,00,02,8.20
2016,03,27,00,03,8.20
2016,03,27,00,04,8.20
2016,03,27,00,06,8.20
2016,03,27,00,07,8.20
2016,03,27,00,09,8.30
2016,03,27,00,11,8.30
2016,03,27,00,12,8.30
2016,03,27,00,13,8.30
2016,03,27,00,14,8.30
2016,03,27,00,16,8.30
2016,03,27,00,17,8.30
2016,03,27,00,18,8.30
2016,03,27,00,19,8.30
2016,03,27,00,21,8.30
2016,03,27,00,22,8.30
2016,03,27,00,23,8.30
2016,03,27,00,24,8.30
2016,03,27,00,26,8.20
2016,03,27,00,27,8.20
2016,03,27,00,28,8.20
2016,03,27,00,29,8.20
2016,03,27,00,31,8.20
2016,03,27,00,32,8.20
2016,03,27,00,33,8.20
2016,03,27,00,34,8.20
2016,03,27,00,36,8.20
2016,03,27,00,37,8.10
2016,03,27,00,38,8.10
2016,03,27,00,39,8.10
2016,03,27,00,41,8.10
2016,03,27,00,42,8.10
2016,03,27,00,43,8.00
2016,03,27,00,44,8.00
2016,03,27,00,46,8.00
2016,03,27,00,47,8.00
2016,03,27,00,48,8.00
2016,03,27,00,49,8.00
2016,03,27,00,51,8.00
2016,03,27,00,52,7.90
2016,03,27,00,53,7.90
2016,03,27,00,54,7.90
2016,03,27,00,55,7.90
2016,03,27,00,56,7.90
2016,03,27,00,57,7.90
2016,03,27,00,58,7.90
2016,03,27,00,59,7.90
2016,03,27,01,00,7.90
2016,03,27,01,01,7.90
2016,03,27,01,02,7.90
2016,03,27,01,03,7.90
2016,03,27,01,04,7.90
2016,03,27,01,06,7.90
2016,03,27,01,07,7.90
2016,03,27,01,08,7.90
2016,03,27,01,09,7.90
2016,03,27,01,10,7.90
2016,03,27,01,11,7.90
2016,03,27,01,12,7.90
2016,03,27,01,13,7.90
2016,03,27,01,14,7.90
2016,03,27,01,15,7.90
2016,03,27,01,16,7.90
2016,03,27,01,17,7.90
2016,03,27,01,18,7.90
2016,03,27,01,19,8.00
2016,03,27,01,20,8.00
2016,03,27,01,21,8.00
2016,03,27,01,22,8.00
2016,03,27,01,23,8.00
2016,03,27,01,24,8.00
2016,03,27,01,25,8.00
2016,03,27,01,26,8.00
2016,03,27,01,27,8.00
2016,03,27,01,28,8.00
2016,03,27,01,29,8.00
2016,03,27,01,30,8.00
2016,03,27,01,31,8.00
2016,03,27,01,32,8.00
2016,03,27,01,33,8.00
2016,03,27,01,34,8.00
2016,03,27,01,35,8.00
2016,03,27,01,36,8.00
2016,03,27,01,37,8.00
2016,03,27,01,38,8.10
2016,03,27,01,39,8.10
2016,03,27,01,40,8.10
2016,03,27,01,41,8.10
2016,03,27,01,42,8.10
2016,03,27,01,43,8.10
2016,03,27,01,44,8.10
2016,03,27,01,45,8.10
2016,03,27,01,46,8.10
2016,03,27,01,47,8.10
2016,03,27,01,48,8.00
2016,03,27,01,49,8.10
2016,03,27,01,50,8.10
2016,03,27,01,51,8.10
2016,03,27,01,52,8.10
2016,03,27,01,53,8.10
2016,03,27,01,54,8.10
2016,03,27,01,55,8.10
2016,03,27,01,56,8.10
2016,03,27,01,57,8.10
2016,03,27,01,58,8.10
2016,03,27,01,59,8.10
2016,03,27,02,00,8.10
2016,03,27,02,01,8.10
2016,03,27,02,02,8.10
2016,03,27,02,03,8.10
2016,03,27,02,04,8.10
2016,03,27,02,05,8.10
2016,03,27,02,06,8.10
2016,03,27,02,07,8.10
2016,03,27,02,08,8.10
2016,03,27,02,09,8.20
2016,03,27,02,10,8.20
2016,03,27,02,11,8.10
2016,03,27,02,12,8.10
2016,03,27,02,13,8.10
2016,03,27,02,14,8.10
2016,03,27,02,15,8.10
2016,03,27,02,16,8.10
2016,03,27,02,17,8.10
2016,03,27,02,18,8.10
2016,03,27,02,19,8.10
2016,03,27,02,20,8.10
2016,03,27,02,21,8.10
2016,03,27,02,22,8.10
2016,03,27,02,23,8.10
2016,03,27,02,24,8.10
2016,03,27,02,25,8.10
2016,03,27,02,26,8.10
2016,03,27,02,27,8.10
2016,03,27,02,28,8.10
2016,03,27,02,29,8.10
2016,03,27,02,31,8.10
2016,03,27,02,32,8.10
2016,03,27,02,33,8.10
2016,03,27,02,34,8.10
2016,03,27,02,36,8.10
2016,03,27,02,37,8.10
2016,03,27,02,38,8.10
2016,03,27,02,39,8.10
2016,03,27,02,41,8.00
2016,03,27,02,42,8.00
2016,03,27,02,43,8.00
2016,03,27,02,44,8.00
2016,03,27,02,46,7.90
2016,03,27,02,47,7.90
2016,03,27,02,48,7.90
2016,03,27,02,49,7.90
2016,03,27,02,51,7.80
2016,03,27,02,52,7.80
2016,03,27,02,53,7.80
2016,03,27,02,54,7.80
2016,03,27,02,56,7.80
2016,03,27,02,57,7.80
2016,03,27,02,58,7.80
2016,03,27,02,59,7.80
2016,03,27,03,01,7.80
2016,03,27,03,02,7.80
2016,03,27,03,03,7.80
2016,03,27,03,04,7.80
2016,03,27,03,06,7.80
2016,03,27,03,07,7.80
2016,03,27,03,08,7.80
2016,03,27,03,09,7.80
2016,03,27,03,11,7.80
2016,03,27,03,12,7.80
2016,03,27,03,13,7.80
2016,03,27,03,14,7.80
2016,03,27,03,16,7.80
2016,03,27,03,17,7.80
2016,03,27,03,18,7.80
2016,03,27,03,19,7.80
2016,03,27,03,21,7.80
2016,03,27,03,22,7.80
2016,03,27,03,23,7.80
2016,03,27,03,24,7.80
2016,03,27,03,26,7.80
2016,03,27,03,27,7.80
2016,03,27,03,28,7.80
2016,03,27,03,29,7.80
2016,03,27,03,31,7.80
2016,03,27,03,32,7.80
2016,03,27,03,33,7.80
2016,03,27,03,34,7.80
2016,03,27,03,36,7.80
2016,03,27,03,37,7.80
2016,03,27,03,38,7.80
2016,03,27,03,39,7.80
2016,03,27,03,41,7.80
2016,03,27,03,42,7.80
2016,03,27,03,43,7.80
2016,03,27,03,44,7.80
2016,03,27,03,46,7.80
2016,03,27,03,47,7.80
2016,03,27,03,48,7.80
2016,03,27,03,49,7.80
2016,03,27,03,51,7.80
2016,03,27,03,52,7.80
2016,03,27,03,53,7.80
2016,03,27,03,54,7.80
2016,03,27,03,55,7.80
2016,03,27,03,56,7.80
2016,03,27,03,57,7.80
2016,03,27,03,58,7.80
2016,03,27,03,59,7.80
2016,03,27,04,00,7.80
2016,03,27,04,01,7.80
2016,03,27,04,02,7.80
2016,03,27,04,03,7.80
2016,03,27,04,04,7.80
2016,03,27,04,05,7.80
2016,03,27,04,06,7.80
2016,03,27,04,07,7.80
2016,03,27,04,08,7.80
2016,03,27,04,09,7.80
2016,03,27,04,10,7.80
2016,03,27,04,11,7.80
2016,03,27,04,12,7.80
2016,03,27,04,13,7.80
2016,03,27,04,14,7.80
2016,03,27,04,15,7.80
2016,03,27,04,16,7.80
2016,03,27,04,17,7.80
2016,03,27,04,18,7.80
2016,03,27,04,19,7.80
2016,03,27,04,20,7.80
2016,03,27,04,21,7.80
2016,03,27,04,22,7.80
2016,03,27,04,23,7.80
2016,03,27,04,24,7.80
2016,03,27,04,25,7.80
2016,03,27,04,26,7.80
2016,03,27,04,27,7.80
2016,03,27,04,28,7.90
2016,03,27,04,29,7.90
2016,03,27,04,30,7.90
2016,03,27,04,31,7.90
2016,03,27,04,32,7.90
2016,03,27,04,33,7.90
2016,03,27,04,34,7.90
2016,03,27,04,35,7.90
2016,03,27,04,36,7.90
2016,03,27,04,37,8.00
2016,03,27,04,38,8.00
2016,03,27,04,39,8.00
2016,03,27,04,40,8.00
2016,03,27,04,41,8.00
2016,03,27,04,42,8.00
2016,03,27,04,43,8.00
2016,03,27,04,44,8.00
2016,03,27,04,45,8.00
2016,03,27,04,46,8.00
2016,03,27,04,47,8.00
2016,03,27,04,48,8.00
2016,03,27,04,49,8.00
2016,03,27,04,50,7.90
2016,03,27,04,51,7.90
2016,03,27,04,52,7.90
2016,03,27,04,53,7.90
2016,03,27,04,54,7.90
2016,03,27,04,55,7.90
2016,03,27,04,56,7.80
2016,03,27,04,57,7.80
2016,03,27,04,58,7.80
2016,03,27,04,59,7.80
2016,03,27,05,00,7.80
2016,03,27,05,01,7.80
2016,03,27,05,02,7.80
2016,03,27,05,03,7.80
2016,03,27,05,04,7.80
2016,03,27,05,05,7.80
2016,03,27,05,06,7.80
2016,03,27,05,07,7.80
2016,03,27,05,08,7.80
2016,03,27,05,09,7.80
2016,03,27,05,10,7.80
2016,03,27,05,11,7.80
2016,03,27,05,12,7.80
2016,03,27,05,13,7.70
2016,03,27,05,14,7.70
2016,03,27,05,16,7.70
2016,03,27,05,17,7.70
2016,03,27,05,18,7.70
2016,03,27,05,19,7.70
2016,03,27,05,21,7.70
2016,03,27,05,22,7.70
2016,03,27,05,23,7.70
2016,03,27,05,24,7.70
2016,03,27,05,26,7.70
2016,03,27,05,27,7.70
2016,03,27,05,28,7.70
2016,03,27,05,29,7.70
2016,03,27,05,31,7.70
2016,03,27,05,32,7.70
2016,03,27,05,33,7.70
2016,03,27,05,34,7.70
2016,03,27,05,36,7.70
2016,03,27,05,37,7.70
2016,03,27,05,38,7.70
2016,03,27,05,39,7.70
2016,03,27,05,41,7.70
2016,03,27,05,42,7.70
2016,03,27,05,43,7.70
2016,03,27,05,44,7.70
2016,03,27,05,46,7.70
2016,03,27,05,47,7.70
2016,03,27,05,48,7.70
2016,03,27,05,49,7.60
2016,03,27,05,51,7.60
2016,03,27,05,52,7.60
2016,03,27,05,53,7.60
2016,03,27,05,54,7.60
2016,03,27,05,56,7.60
2016,03,27,05,57,7.50
2016,03,27,05,58,7.50
2016,03,27,05,59,7.50
2016,03,27,06,01,7.40
2016,03,27,06,02,7.40
2016,03,27,06,03,7.30
2016,03,27,06,04,7.30
2016,03,27,06,06,7.30
2016,03,27,06,07,7.30
2016,03,27,06,08,7.30
2016,03,27,06,09,7.30
2016,03,27,06,11,7.30
2016,03,27,06,12,7.30
2016,03,27,06,13,7.30
2016,03,27,06,14,7.30
2016,03,27,06,16,7.30
2016,03,27,06,17,7.30
2016,03,27,06,18,7.20
2016,03,27,06,19,7.30
2016,03,27,06,21,7.30
2016,03,27,06,22,7.30
2016,03,27,06,23,7.30
2016,03,27,06,24,7.30
2016,03,27,06,26,7.30
2016,03,27,06,27,7.30
2016,03,27,06,28,7.30
2016,03,27,06,29,7.30
2016,03,27,06,31,7.30
2016,03,27,06,32,7.30
2016,03,27,06,33,7.30
2016,03,27,06,34,7.30
2016,03,27,06,36,7.30
2016,03,27,06,37,7.30
2016,03,27,06,38,7.30
2016,03,27,06,39,7.30
2016,03,27,06,40,7.30
2016,03,27,06,41,7.30
2016,03,27,06,42,7.30
2016,03,27,06,43,7.30
2016,03,27,06,44,7.30
2016,03,27,06,45,7.30
2016,03,27,06,46,7.30
2016,03,27,06,47,7.30
2016,03,27,06,48,7.30
2016,03,27,06,49,7.30
2016,03,27,06,50,7.30
2016,03,27,06,51,7.30
2016,03,27,06,52,7.30
2016,03,27,06,53,7.30
2016,03,27,06,54,7.30
2016,03,27,06,55,7.30
2016,03,27,06,56,7.30
2016,03,27,06,57,7.30
2016,03,27,06,58,7.30
2016,03,27,06,59,7.30
2016,03,27,07,00,7.30
2016,03,27,07,01,7.30
2016,03,27,07,02,7.30
2016,03,27,07,03,7.30
2016,03,27,07,04,7.30
2016,03,27,07,05,7.30
2016,03,27,07,06,7.30
2016,03,27,07,07,7.30
2016,03,27,07,08,7.30
2016,03,27,07,09,7.30
2016,03,27,07,10,7.30
2016,03,27,07,11,7.30
2016,03,27,07,12,7.30
2016,03,27,07,13,7.30
2016,03,27,07,14,7.30
2016,03,27,07,15,7.30
2016,03,27,07,16,7.30
2016,03,27,07,17,7.30
2016,03,27,07,18,7.30
2016,03,27,07,19,7.30
2016,03,27,07,20,7.30
2016,03,27,07,21,7.30
2016,03,27,07,22,7.30
2016,03,27,07,23,7.40
2016,03,27,07,24,7.40
2016,03,27,07,25,7.40
2016,03,27,07,26,7.40
2016,03,27,07,27,7.40
2016,03,27,07,28,7.40
2016,03,27,07,29,7.40
2016,03,27,07,30,7.40
2016,03,27,07,31,7.40
2016,03,27,07,32,7.40
2016,03,27,07,33,7.40
2016,03,27,07,34,7.40
2016,03,27,07,35,7.40
2016,03,27,07,37,7.50
2016,03,27,07,39,7.60
2016,03,27,07,41,7.60
2016,03,27,07,42,7.70
2016,03,27,07,43,7.70
2016,03,27,07,44,7.70
2016,03,27,07,46,7.80
2016,03,27,07,47,7.80
2016,03,27,07,48,7.80
2016,03,27,07,49,7.80
2016,03,27,07,51,7.80
2016,03,27,07,52,7.80
2016,03,27,07,53,7.80
2016,03,27,07,54,7.90
2016,03,27,07,56,7.90
2016,03,27,07,57,7.90
2016,03,27,07,58,7.90
2016,03,27,07,59,7.90
2016,03,27,08,01,7.90
2016,03,27,08,02,7.90
2016,03,27,08,03,7.90
2016,03,27,08,04,7.90
2016,03,27,08,06,7.90
2016,03,27,08,07,7.90
2016,03,27,08,08,7.90
2016,03,27,08,09,7.90
2016,03,27,08,11,8.00
2016,03,27,08,12,8.00
2016,03,27,08,13,8.00
2016,03,27,08,14,8.00
2016,03,27,08,16,8.00
2016,03,27,08,17,8.00
2016,03,27,08,18,8.00
2016,03,27,08,19,8.10
2016,03,27,08,21,8.10
2016,03,27,08,22,8.10
2016,03,27,08,23,8.10
2016,03,27,08,24,8.10
2016,03,27,08,26,8.10
2016,03,27,08,27,8.10
2016,03,27,08,28,8.10
2016,03,27,08,29,8.10
2016,03,27,08,31,8.10
2016,03,27,08,32,8.10
2016,03,27,08,33,8.10
2016,03,27,08,34,8.10
2016,03,27,08,36,8.10
2016,03,27,08,37,8.20
2016,03,27,08,38,8.20
2016,03,27,08,39,8.20
2016,03,27,08,41,8.20
2016,03,27,08,42,8.20
2016,03,27,08,43,8.20
2016,03,27,08,44,8.20
2016,03,27,08,46,8.20
2016,03,27,08,47,8.20
2016,03,27,08,48,8.20
2016,03,27,08,49,8.20
2016,03,27,08,51,8.20
2016,03,27,08,52,8.20
2016,03,27,08,53,8.20
2016,03,27,08,54,8.20
2016,03,27,08,55,8.20
2016,03,27,08,56,8.20
2016,03,27,08,57,8.20
2016,03,27,08,58,8.30
2016,03,27,08,59,8.30
2016,03,27,09,00,8.30
2016,03,27,09,01,8.40
2016,03,27,09,02,8.40
2016,03,27,09,03,8.50
2016,03,27,09,04,8.50
2016,03,27,09,06,8.60
2016,03,27,09,07,8.70
2016,03,27,09,08,8.70
2016,03,27,09,09,8.70
2016,03,27,09,10,8.70
2016,03,27,09,11,8.70
2016,03,27,09,12,8.70
2016,03,27,09,13,8.70
2016,03,27,09,14,8.70
2016,03,27,09,15,8.70
2016,03,27,09,16,8.70
2016,03,27,09,17,8.70
2016,03,27,09,18,8.70
2016,03,27,09,19,8.70
2016,03,27,09,20,8.70
2016,03,27,09,21,8.80
2016,03,27,09,22,8.80
2016,03,27,09,23,8.80
2016,03,27,09,24,8.80
2016,03,27,09,25,8.80
2016,03,27,09,26,8.80
2016,03,27,09,27,8.80
2016,03,27,09,28,8.80
2016,03,27,09,29,8.90
2016,03,27,09,30,8.90
2016,03,27,09,31,8.90
2016,03,27,09,32,9.00
2016,03,27,09,33,9.00
2016,03,27,09,34,9.10
2016,03,27,09,35,9.10
2016,03,27,09,36,9.20
2016,03,27,09,37,9.20
2016,03,27,09,38,9.30
2016,03,27,09,39,9.30
2016,03,27,09,40,9.30
2016,03,27,09,41,9.30
2016,03,27,09,42,9.40
2016,03,27,09,43,9.40
2016,03,27,09,44,9.40
2016,03,27,09,45,9.40
2016,03,27,09,46,9.40
2016,03,27,09,47,9.40
2016,03,27,09,48,9.40
2016,03,27,09,49,9.40
2016,03,27,09,50,9.50
2016,03,27,09,51,9.50
2016,03,27,09,53,9.50
2016,03,27,09,54,9.50
2016,03,27,09,55,9.50
2016,03,27,09,57,9.40
2016,03,27,09,58,9.40
2016,03,27,09,59,9.40
2016,03,27,10,00,9.40
2016,03,27,10,02,9.40
2016,03,27,10,03,9.40
2016,03,27,10,04,9.40
2016,03,27,10,06,9.40
2016,03,27,10,07,9.40
2016,03,27,10,08,9.40
2016,03,27,10,09,9.40
2016,03,27,10,11,9.40
2016,03,27,10,12,9.50
2016,03,27,10,13,9.50
2016,03,27,10,14,9.50
2016,03,27,10,16,9.50
2016,03,27,10,17,9.40
2016,03,27,10,18,9.40
2016,03,27,10,19,9.30
2016,03,27,10,21,9.30
2016,03,27,10,22,9.20
2016,03,27,10,23,9.20
2016,03,27,10,24,9.20
2016,03,27,10,26,9.20
2016,03,27,10,27,9.20
2016,03,27,10,28,9.20
2016,03,27,10,29,9.20
2016,03,27,10,31,9.10
2016,03,27,10,32,9.10
2016,03,27,10,33,9.10
2016,03,27,10,34,9.10
2016,03,27,10,36,9.00
2016,03,27,10,37,9.00
2016,03,27,10,38,9.00
2016,03,27,10,39,8.90
2016,03,27,10,41,8.90
2016,03,27,10,42,8.90
2016,03,27,10,43,8.90
2016,03,27,10,44,8.90
2016,03,27,10,46,9.00
2016,03,27,10,47,9.00
2016,03,27,10,48,9.10
2016,03,27,10,49,9.10
2016,03,27,10,51,9.10
2016,03,27,10,52,9.10
2016,03,27,10,53,9.00
2016,03,27,10,54,9.00
2016,03,27,10,56,9.00
2016,03,27,10,57,8.90
2016,03,27,10,58,8.90
2016,03,27,10,59,8.90
2016,03,27,11,01,8.90
